RH
2 2 2 2 2 2 2 5 7 22 50 59 73 88 78 18 44 93 88 99 98 84 46 21 14 21 36 37 38 44 46 45 61 54 88 96 97 98 99 90 83 67 68 59 67
2 2 2 2 2 3 6 26 41 47 51 61 67 67 83 59 22 61 99 98 100 98 72 38 19 15 24 45 38 47 41 37 36 62 75 97 94 98 97 96 87 71 66 58 53
2 2 2 2 3 8 21 43 51 49 52 61 70 78 79 78 63 57 72 96 99 98 94 69 26 16 17 47 51 43 34 33 37 50 94 99 85 94 94 90 90 74 72 62 49
2 2 2 5 24 34 36 31 23 19 19 19 22 28 59 79 79 100 93 86 99 100 100 84 34 22 14 16 47 42 39 47 44 46 78 99 82 97 92 98 100 89 71 69 61
2 2 4 33 39 30 19 18 31 33 30 27 18 15 16 33 90 100 100 100 100 100 98 95 51 29 17 15 35 37 37 36 46 47 42 87 91 80 89 99 98 99 82 63 61
2 3 16 48 32 16 20 26 36 44 52 33 19 20 15 14 27 94 100 99 100 100 99 98 72 36 24 15 15 23 50 36 38 50 41 48 85 90 81 91 95 88 84 67 59
2 8 46 34 16 15 23 35 48 64 63 25 38 45 27 27 26 33 100 100 100 100 100 97 90 52 33 21 14 16 58 74 40 46 40 38 50 66 94 98 88 97 90 79 57
3 18 46 17 17 24 36 48 65 93 55 37 41 51 54 96 67 32 52 99 100 100 99 100 100 77 53 34 20 13 16 59 69 62 42 37 32 42 69 97 86 91 96 83 70
3 25 41 15 20 31 39 46 79 100 77 52 53 44 53 100 100 97 38 67 100 97 100 100 100 99 81 70 58 24 12 13 45 60 51 32 27 35 36 75 94 80 94 88 73
4 32 29 17 24 32 39 71 90 100 78 46 69 69 61 100 100 100 75 67 57 100 100 100 100 99 100 100 52 31 20 12 12 32 44 53 42 41 38 38 78 100 96 91 82
4 46 18 18 24 35 59 82 100 100 85 80 71 64 74 100 100 100 100 76 49 72 100 100 100 87 98 95 69 59 35 22 15 14 23 44 55 61 56 40 42 60 88 96 87
6 52 17 18 30 40 42 29 45 86 78 68 88 77 75 99 100 99 100 99 61 61 88 99 91 100 100 100 97 82 58 38 33 21 14 14 29 48 71 53 39 38 46 92 98
6 50 15 24 33 44 36 53 57 76 67 77 98 90 81 83 98 94 99 98 87 52 58 86 100 100 100 97 99 100 69 61 50 41 20 14 12 16 28 54 54 40 36 40 96
6 45 14 26 35 45 63 65 57 71 98 98 99 100 99 75 78 100 98 98 99 71 49 54 88 99 97 96 93 87 83 76 69 61 26 17 12 11 12 18 44 52 37 36 47
5 44 13 27 30 34 40 69 60 66 90 100 100 100 99 46 69 63 63 80 83 80 57 37 62 90 94 97 91 82 100 99 78 78 42 23 20 16 13 11 18 40 47 39 37
5 41 15 21 24 25 36 58 65 62 99 100 100 100 96 46 25 30 44 56 62 61 50 43 39 57 94 100 99 99 98 88 98 100 77 35 30 18 19 10 13 27 53 55 43
4 30 28 16 21 22 31 48 44 67 76 90 100 100 100 100 93 74 53 50 48 47 35 30 26 30 58 99 100 100 100 100 100 96 55 69 44 15 19 16 11 18 47 65 45
4 39 37 13 18 20 32 42 46 61 90 96 100 100 100 100 100 100 99 100 100 97 99 24 23 22 42 82 76 94 100 94 80 56 55 52 26 13 17 22 29 17 36 62 58
4 40 35 20 20 19 22 35 45 39 86 69 98 100 100 100 100 100 100 100 100 100 100 70 28 25 40 71 97 99 95 78 99 66 50 35 21 16 34 47 54 29 39 62 62
4 29 43 24 20 24 23 24 40 35 70 64 67 92 97 100 100 100 100 100 100 97 100 100 84 30 34 60 81 83 99 74 62 46 34 30 20 26 54 74 74 69 67 67 61
4 15 44 31 20 30 28 24 29 36 53 60 62 82 99 100 100 94 100 100 100 99 92 90 100 100 26 80 78 98 99 89 72 46 30 37 53 48 77 94 75 76 80 67 46
4 17 47 39 25 24 35 27 28 27 36 52 54 67 84 92 90 95 100 100 100 100 89 81 56 52 80 100 90 100 100 83 60 42 36 50 55 78 99 98 76 72 73 55 41
4 10 64 44 31 29 38 35 31 33 28 43 50 57 69 83 99 76 86 93 96 100 100 83 73 43 78 95 90 86 67 50 35 55 83 77 56 77 90 100 77 57 52 46 39
6 8 68 49 28 32 30 36 40 38 44 36 41 48 58 71 73 67 58 64 75 93 100 100 65 70 58 36 28 26 28 26 39 70 64 66 72 80 97 94 92 88 62 42 35
7 10 41 67 37 32 32 36 45 41 54 47 50 42 37 50 86 71 71 79 80 88 75 94 100 100 90 68 47 42 42 41 52 86 76 72 87 97 100 99 99 92 76 50 40
6 13 17 100 41 33 35 40 48 49 53 58 54 42 37 32 52 88 88 78 84 85 76 73 81 96 100 99 92 93 89 86 82 76 80 96 98 100 97 98 99 96 100 96 78
11 14 16 83 50 47 60 54 44 52 48 69 79 58 45 40 31 68 79 66 73 79 71 78 79 79 79 76 81 84 84 90 93 99 95 97 91 89 100 100 96 98 98 96 94
Wind_Speed
65 58 55 53 48 41 38 36 33 31 31 32 34 36 39 49 49 41 39 41 52 51 50 47 45 44 50 49 51 52 55 50 53 53 52 47 40 48 37 50 54 55 50 48 44
62 57 58 55 46 39 34 31 29 30 33 34 34 36 37 40 48 44 39 39 50 53 52 50 47 46 47 51 51 55 53 47 42 39 40 50 55 44 44 43 49 56 53 52 50
62 60 59 54 43 37 32 31 33 35 37 39 40 39 40 42 40 40 46 42 50 58 55 54 51 49 45 51 53 50 47 38 42 42 44 51 56 48 48 45 52 55 51 49 52
62 63 60 49 40 37 34 35 38 42 42 44 46 46 47 44 41 41 45 47 46 59 59 58 54 52 49 48 52 49 41 48 45 47 51 53 50 45 44 38 45 53 58 49 49
64 65 55 42 42 40 39 39 33 34 38 41 42 45 50 51 43 44 44 48 48 58 64 60 58 56 52 48 49 50 47 48 51 50 50 52 51 48 47 34 47 47 58 51 44
66 61 50 43 43 42 39 31 38 43 45 49 40 43 46 52 49 52 46 48 48 50 66 64 61 58 55 50 45 46 50 48 52 56 53 49 51 47 45 48 46 53 52 58 49
65 59 49 45 42 42 37 37 44 48 44 40 31 33 35 36 44 52 54 47 48 45 56 65 63 60 56 53 51 47 48 50 53 53 54 52 48 44 44 50 50 46 50 52 52
64 54 50 47 43 37 36 41 47 44 39 36 28 26 19 20 27 42 54 55 49 49 46 60 64 61 55 53 54 52 51 53 52 50 51 49 43 43 45 45 44 45 50 52 49
62 54 50 46 38 36 40 40 46 37 35 38 26 18 14 17 19 27 41 51 52 47 47 52 63 60 56 49 50 55 49 46 51 51 47 43 41 43 42 43 45 43 46 52 49
60 52 49 46 33 40 45 43 40 36 30 34 24 17 8 18 18 17 26 34 44 46 47 53 60 62 55 54 57 51 50 47 45 46 51 48 41 43 46 43 46 47 44 50 50
58 50 46 41 38 45 45 38 38 33 25 34 27 12 5 12 20 21 21 28 35 41 47 47 56 60 47 47 54 48 48 44 41 43 46 45 47 43 45 47 47 46 47 47 52
53 48 44 36 42 43 40 34 32 28 24 26 29 17 5 10 16 22 21 25 30 35 42 46 47 54 57 48 41 47 46 42 40 40 39 37 36 47 42 43 47 47 44 46 47
51 45 41 37 34 37 35 39 39 30 23 22 25 21 12 9 15 14 18 23 31 35 36 42 46 51 65 58 46 38 46 40 36 35 40 39 38 39 42 43 46 48 47 43 46
48 42 33 26 29 31 38 37 38 41 35 34 27 24 27 2 20 27 22 19 23 34 40 44 44 46 58 61 55 44 34 31 36 35 35 38 36 31 33 37 44 46 49 46 44
46 38 25 16 22 25 33 34 34 44 46 46 42 34 28 13 6 17 21 23 23 25 38 41 44 44 46 53 52 50 39 34 29 26 30 37 35 31 31 35 38 44 44 48 47
43 35 25 11 19 29 25 28 33 42 46 41 42 41 43 30 18 10 11 18 21 25 31 43 47 46 44 47 50 45 35 33 27 30 34 33 32 28 26 26 31 42 44 48 49
42 32 29 12 14 20 22 23 29 40 37 39 41 40 36 32 31 23 20 17 12 14 27 40 48 48 46 44 54 45 33 34 33 35 35 33 31 20 22 24 31 37 44 45 49
41 30 26 12 15 21 16 20 25 36 31 33 36 33 32 29 23 24 22 27 22 18 7 31 50 51 46 43 49 37 39 31 34 34 30 31 29 21 24 23 29 38 44 45 49
37 28 23 18 17 19 16 16 21 28 23 27 26 31 25 26 27 26 33 30 22 15 19 21 32 48 46 43 51 36 43 32 31 26 29 30 25 20 24 25 27 36 40 42 47
38 27 19 16 16 14 14 12 15 19 18 23 19 16 18 13 15 30 25 22 19 10 11 16 22 40 46 43 37 42 42 41 34 30 28 28 25 27 23 22 22 31 29 39 45
37 27 17 16 13 11 10 9 11 13 13 18 19 15 17 14 13 19 19 19 16 11 12 18 20 36 43 34 47 39 47 44 33 30 29 27 24 30 25 14 23 27 29 34 41
33 24 17 16 13 11 8 7 8 8 8 11 16 12 12 16 16 17 18 15 12 13 16 19 24 42 42 36 37 32 36 36 35 32 30 26 33 18 15 19 18 25 32 27 36
32 24 16 14 12 10 8 5 7 3 4 5 11 12 7 11 11 12 12 14 16 21 17 22 33 41 29 30 36 30 29 32 33 29 26 26 31 27 22 17 16 19 27 31 33
33 24 16 13 12 10 10 10 6 4 2 2 3 8 8 4 4 6 6 7 10 15 18 19 27 31 30 25 25 26 30 31 29 28 32 29 26 22 27 24 18 22 24 29 33
37 25 15 14 13 12 13 11 8 7 4 5 2 3 4 4 5 4 5 6 6 8 11 13 16 18 22 27 29 29 29 28 30 27 26 24 24 25 27 24 22 23 25 26 29
41 26 16 13 15 15 14 13 10 7 6 5 5 3 0 2 5 6 6 5 6 6 7 7 10 14 18 20 21 22 23 22 24 26 23 22 21 15 15 12 15 19 23 26 25
36 27 16 13 13 13 15 15 13 9 9 6 6 6 5 4 6 10 7 1 2 2 5 9 11 11 12 16 17 18 18 18 17 17 19 16 14 13 13 14 11 15 16 17 22
Wind_Direction
344 338 328 324 323 315 307 304 299 291 284 271 266 261 260 246 246 248 248 243 217 219 220 218 218 217 217 220 220 221 224 220 218 221 223 216 208 202 208 215 211 217 218 219 218
345 336 329 328 322 313 308 309 302 295 288 284 275 265 258 254 244 243 242 240 232 216 216 219 217 219 216 219 220 220 223 222 221 222 214 225 230 210 210 203 211 217 218 217 218
345 335 334 329 322 317 316 308 297 291 284 279 273 267 258 250 245 238 235 235 231 220 215 215 216 217 216 217 220 220 223 219 217 216 210 216 223 224 208 209 211 219 215 219 219
345 338 335 331 330 328 316 304 296 293 290 283 278 273 260 248 243 237 233 229 230 225 217 212 216 215 215 218 219 220 214 215 211 216 214 216 217 218 217 209 216 218 219 214 221
348 340 335 335 333 323 310 310 320 317 308 305 289 275 263 254 237 237 232 226 228 226 213 211 215 214 213 214 217 216 213 214 212 218 216 216 219 214 216 211 206 212 222 213 213
345 342 339 337 328 318 313 311 326 324 318 315 292 274 260 253 243 233 228 223 223 223 215 209 211 215 211 212 214 216 215 214 214 217 215 215 218 215 221 218 212 214 217 218 209
346 343 341 336 327 320 327 331 329 324 323 324 300 286 270 256 239 232 228 223 220 216 218 207 209 212 212 209 209 214 216 217 216 219 220 217 214 213 217 226 224 214 211 221 213
345 345 344 337 329 333 336 335 334 331 334 341 314 295 276 249 234 230 226 225 223 215 212 212 204 209 212 212 212 212 214 216 218 220 222 222 221 218 220 226 223 215 217 218 217
347 346 346 338 338 344 337 332 335 334 342 342 330 319 253 233 222 232 221 224 224 218 209 207 205 203 206 214 212 215 213 217 220 224 227 224 218 225 225 227 221 223 216 221 219
347 348 348 340 345 346 337 335 336 333 347 2 334 329 264 228 217 226 215 216 221 217 210 203 209 203 203 200 211 213 213 215 219 222 226 224 215 217 222 219 229 225 220 218 223
349 349 348 347 346 342 343 341 333 333 347 357 1 350 286 216 221 217 211 211 209 213 213 204 204 207 190 207 213 209 216 221 220 223 225 226 224 223 223 221 222 234 225 222 221
350 351 351 358 352 351 353 4 354 348 358 359 4 7 342 210 214 223 219 211 206 205 211 207 199 201 194 201 204 210 213 212 215 226 231 232 223 227 229 222 220 227 232 230 227
351 354 355 8 17 32 37 31 24 15 12 16 360 9 17 210 203 226 219 213 204 200 203 208 197 193 195 194 191 205 209 209 213 220 225 228 224 227 225 226 223 221 229 228 232
351 356 4 26 38 26 24 24 26 27 31 27 16 3 7 44 204 207 211 206 191 198 198 203 203 195 198 202 200 200 202 208 214 216 221 230 226 224 229 230 228 225 223 232 235
350 358 7 35 4 1 8 19 22 22 31 32 33 25 10 45 108 202 211 205 196 190 200 199 204 199 196 194 201 207 211 202 203 223 226 226 226 221 228 231 231 227 225 228 232
348 355 357 358 351 355 4 14 16 20 24 24 17 31 40 48 64 112 160 187 192 193 192 196 197 196 193 190 192 188 198 211 216 213 222 231 231 226 240 234 231 226 224 226 228
346 350 352 334 337 346 352 8 12 32 34 36 32 31 24 41 53 85 106 121 138 181 190 191 192 192 188 186 185 190 199 198 209 218 224 236 241 224 234 241 236 229 225 225 228
344 345 349 320 334 350 352 8 12 25 36 32 38 34 30 28 52 61 86 82 79 104 144 197 185 186 184 186 186 185 192 194 208 214 214 225 229 234 241 252 245 232 224 225 223
342 342 343 339 321 333 340 346 5 13 34 42 34 35 29 34 37 43 35 47 53 91 133 132 180 176 177 187 186 185 196 205 190 211 218 231 239 238 251 265 246 231 224 224 221
339 339 335 326 330 340 342 327 342 360 30 39 38 42 57 54 69 40 63 68 79 91 118 135 169 180 177 181 189 199 209 207 207 219 228 241 251 246 259 270 240 228 228 223 219
337 337 324 320 315 322 353 317 316 360 21 29 37 48 66 75 78 39 64 61 67 125 148 159 190 177 179 182 195 199 200 204 221 228 232 242 257 254 252 260 236 226 228 219 216
340 339 322 314 312 298 324 314 301 332 19 21 38 53 84 77 71 71 63 72 64 90 140 164 168 171 175 190 188 192 210 220 223 223 233 244 241 268 272 269 231 221 209 211 215
343 334 324 302 298 288 281 350 300 322 343 22 35 62 67 106 97 82 74 62 49 72 117 154 169 177 184 192 203 211 209 213 217 228 238 243 239 254 264 265 225 223 213 215 213
344 325 326 290 279 274 275 280 292 282 256 230 42 55 66 68 93 94 79 57 51 65 100 139 172 185 196 198 202 206 210 217 223 230 241 244 252 260 253 258 215 214 221 217 218
346 324 317 291 273 267 264 271 269 267 213 238 163 72 60 87 92 99 95 62 45 58 90 113 138 171 196 204 207 202 208 221 228 228 232 238 250 253 250 246 219 209 216 224 224
343 322 314 299 270 270 265 261 263 264 263 217 217 195 140 163 171 149 146 106 86 98 106 139 136 137 141 154 168 179 188 195 206 218 228 240 250 261 265 257 235 212 210 220 227
337 318 318 301 263 267 267 254 251 258 247 234 223 205 214 218 196 187 180 182 130 136 146 158 167 165 163 165 176 185 192 200 209 214 225 231 243 248 254 256 253 227 206 217 226